This demonstration page uses our WeatherBlox Daily Observations layout. Learn more.

Left ArrowRight Arrow

Hourly Observations for May 10, 2018

Temp ( °F °C ) Dew Point ( °F °C ) Humidity (%) Winds ( mph kmh ) Pressure ( in mb ) Visibility ( mi km ) Precip ( " mm )
2:53 am 02:53 Cloudy with Light Rain 72 22.2 56 13.3 57 57 WNW 22 35 29.85 1011 10 16 0.00 0.03
3:17 am 03:17 Cloudy with Nearby Thunderstorms 66 18.9 59 15 78 78 WSW 8 13 29.88 1012 8 13 0.02 0.51
3:34 am 03:34 Cloudy with Thunderstorms 65 18.3 60 15.6 84 84 SW 6 9 29.85 1011 5 8 0.04 1.02
3:49 am 03:49 Cloudy with Light Rain 64 18 61 16 88 88 SSW 3 6 29.85 1011 10 16 0.05 1.27
3:53 am 03:53 Cloudy with Light Rain 64 17.8 61 16.1 90 90 S 3 6 29.83 1010 10 16 0.05 1.27
4:53 am 04:53 Mostly Cloudy 63 17.2 61 16.1 93 93 Calm 29.83 1010 10 16 0.00 0.03
5:53 am 05:53 Clear 63 17.2 61 16.1 93 93 W 7 11 29.84 1010 10 16 0.00 0.00
6:53 am 06:53 Sunny 63 17.2 61 16.1 93 93 WSW 6 9 29.85 1011 8 13 0.00 0.00
7:53 am 07:53 Sunny 66 18.9 63 17.2 90 90 W 7 11 29.88 1012 10 16 0.00 0.00
8:53 am 08:53 Sunny 69 20.6 63 17.2 81 81 VRB 5 7 29.90 1013 10 16 0.00 0.00
9:53 am 09:53 Sunny 72 22.2 61 16.1 68 68 WSW 10 17 29.92 1013 10 16 0.00 0.00
10:53 am 10:53 Sunny 75 23.9 59 15 58 58 W 13 20 29.92 1013 10 16 0.00 0.00
11:53 am 11:53 Sunny 77 25 55 12.8 47 47 W 13 20 29.93 1014 10 16 0.00 0.00
12:53 pm 12:53 Sunny 79 26.1 52 11.1 39 39 WNW 14 22 29.93 1014 10 16 0.00 0.00
1:53 pm 13:53 Mostly Sunny 80 26.7 54 12.2 41 41 W 22 35 29.94 1014 10 16 0.00 0.00
2:53 pm 14:53 Partly Cloudy 81 27.2 55 12.8 41 41 WNW 20 31 29.93 1014 10 16 0.00 0.00
3:53 pm 15:53 Mostly Sunny 82 27.8 53 11.7 37 37 W 17 28 29.93 1014 10 16 0.00 0.00
4:53 pm 16:53 Partly Cloudy 81 27.2 52 11.1 37 37 NW 16 26 29.92 1013 10 16 0.00 0.00
5:53 pm 17:53 Partly Cloudy 82 27.8 52 11.1 35 35 W 10 17 29.91 1013 10 16 0.00 0.00
6:53 pm 18:53 Sunny 81 27.2 51 10.6 35 35 WNW 15 24 29.91 1013 10 16 0.00 0.00
7:53 pm 19:53 Sunny 77 25 53 11.7 43 43 NW 8 13 29.91 1013 10 16 0.00 0.00
8:53 pm 20:53 Clear 69 20.6 56 13.3 63 63 Calm 29.93 1013 10 16 0.00 0.00
9:53 pm 21:53 Clear 65 18.3 58 14.4 78 78 Calm 29.95 1014 10 16 0.00 0.00
10:53 pm 22:53 Clear 62 16.7 58 14.4 86 86 Calm 29.97 1015 10 16 0.00 0.00
11:53 pm 23:53 Clear 59 15 55 12.8 87 87 Calm 29.97 1015 10 16 0.00 0.00

Powered by AerisWeather